Flag for Spain Weather past 2 weeks in Alicante, Spain

Now
77 °F

Clear.


Feels Like: 79 °F
Forecast: 67 / 87 °F
Wind: No wind

Location: Alicante / El Altet

Current Time: Jul 31, 2014 at 12:04:14 AM

Latest Report: Jul 30, 2014 at 11:30 PM


Visibility: 10 mi

Pressure: 29.95 "Hg

Humidity: 74%

Dew point: 68 °F

Location of AlicanteLocation

Historic Weather in Alicante — Graph

°F

Alicante temperature yesterday

Maximum temperature yesterday: 86 °F (at 3:30 PM)
Minimum temperature yesterday: 72 °F (at 4:30 AM)
Average temperature yesterday: 79 °F

Past Weeks' High & Low Weather Summary

 TemperatureHumidityPressure
High91 °F (Jul 20, 2:00 PM)94% (Jul 27, 2:30 AM)30.12 "Hg (Jul 27, 2:30 AM)
Low68 °F (Jul 22, 5:00 AM)21% (Jul 20, 2:30 PM)29.77 "Hg (Jul 24, 7:00 PM)
Average80 °F62%29.94 "Hg
* Reported Jul 15 11:00 PM — Jul 30 11:00 PM, Alicante, Weather by CustomWeather, © 2014

Note: Actual official high and low records may vary slightly from our data, if they occured in-between our weather recording intervals... More about our weather records

Advertising

Alicante weather history for previous 24 hours

 ConditionsComfort  
Time TempWeatherWind HumidityBarometerVisibility
11:00 PM
Jul 30
77 °FClear.No wind74%29.95 "Hg10 mi
10:30 PM77 °FClear.1 mph74%29.95 "Hg10 mi
10:00 PM79 °FSunny.No wind70%29.95 "Hg10 mi
9:30 PM79 °FSunny.2 mph70%29.92 "Hg10 mi
9:00 PM79 °FSunny.2 mph65%29.92 "Hg10 mi
8:30 PM79 °FPassing clouds.5 mph70%29.92 "HgN/A
7:30 PM81 °FPassing clouds.8 mph66%29.89 "HgN/A
7:00 PM82 °FPassing clouds.3 mph58%29.89 "HgN/A
6:30 PM84 °FPassing clouds.6 mph51%29.92 "HgN/A
6:00 PM84 °FPassing clouds.7 mph51%29.92 "HgN/A
5:30 PM86 °FPassing clouds.8 mph46%29.92 "HgN/A
5:00 PM86 °FSunny.8 mph43%29.92 "Hg10 mi
4:30 PM84 °FPassing clouds.12 mph45%29.92 "HgN/A
4:00 PM84 °FPassing clouds.10 mph45%29.92 "HgN/A
3:30 PM86 °FPassing clouds.8 mph46%29.92 "HgN/A
3:00 PM84 °FPassing clouds.10 mph48%29.92 "HgN/A
2:30 PM82 °FPassing clouds.12 mph55%29.95 "HgN/A
2:00 PM84 °FPassing clouds.10 mph51%29.95 "HgN/A
1:30 PM84 °FPassing clouds.9 mph55%29.95 "HgN/A
1:00 PM84 °FPassing clouds.10 mph51%29.95 "HgN/A
12:30 PM82 °FPassing clouds.7 mph58%29.95 "HgN/A
12:00 PM81 °FPartly sunny.8 mph66%29.98 "HgN/A
11:30 AM81 °FPartly sunny.2 mph66%29.95 "HgN/A
11:00 AM81 °FPartly sunny.6 mph66%29.98 "HgN/A
10:30 AM81 °FScattered clouds.3 mph62%29.98 "HgN/A
10:00 AM81 °FScattered clouds.1 mph58%29.98 "HgN/A
9:30 AM79 °FPartly sunny.2 mph58%29.98 "HgN/A
9:00 AM79 °FPartly sunny.1 mph54%29.98 "HgN/A
8:30 AM77 °FPartly sunny.2 mph51%29.95 "HgN/A
8:00 AM77 °FPartly sunny.2 mph51%29.95 "HgN/A
7:30 AM75 °FPassing clouds.1 mph54%29.95 "HgN/A
7:00 AM77 °FPassing clouds.No wind51%29.95 "HgN/A
6:30 AM75 °FPassing clouds.No wind57%29.95 "HgN/A
6:00 AM75 °FPassing clouds.No wind57%29.95 "HgN/A
5:30 AM73 °FPassing clouds.No wind61%29.95 "HgN/A
5:00 AM75 °FPassing clouds.No wind57%29.95 "HgN/A
4:30 AM72 °FPassing clouds.1 mph65%29.95 "HgN/A
4:00 AM73 °FClear.1 mph61%29.95 "Hg10 mi
3:00 AM73 °FClear.1 mph65%29.95 "Hg10 mi
2:30 AM75 °FClear.1 mph61%29.95 "Hg10 mi
2:00 AM75 °FClear.1 mph61%29.98 "Hg10 mi
1:30 AM75 °FClear.No wind61%29.98 "Hg10 mi
1:00 AM75 °FClear.No wind61%29.98 "Hg10 mi
12:30 AM75 °FClear.No wind61%29.98 "Hg10 mi
12:00 AM75 °FClear.No wind61%29.98 "Hg10 mi
Weather by CustomWeather, © 2014

See weather overviewHow to use our weather pages